Date String (YYYY-MM-DD hh:mm:ss) UTC,Instrument flags,Ambient pressure (hPa),Sample flow (lpm),Bypass flow (lpm),Sample temperature (°C),Ambient temperature (°C),ASC tube jacket temperature (°C),LED temperature (°C),Box temperature (°C),Sample RH (%),Span deviation,Mass concentration (μg/m³),Mass concentration (μg/m³),Mass concentration (μg/m³)
DateTimeUTC,F1_M11,P_M11,Q1_M11,Q2_M11,T1_M11,T2_M11,T3_M11,T4_M11,T5_M11,U1_M11,ZSPAN_M11,X2_M11,X0_M11,X1_M11
2022-10-09 05:00:00,,0833.6,5.01,0.00,29.5,27.8,00.0,38.4,31.3,16.7,0001.0,0009.07,0014.37,0008.37
2022-10-09 05:01:00,,0833.6,4.99,0.00,29.5,27.8,00.0,38.4,31.2,16.7,0001.1,0009.11,0014.30,0008.37
2022-10-09 05:02:00,,0833.6,5.01,0.00,29.5,27.8,00.0,38.4,31.2,16.6,0001.4,0009.10,0013.78,0008.36
2022-10-09 05:03:00,,0833.6,5.01,0.00,29.5,27.8,00.0,38.4,31.3,16.7,0001.4,0009.09,0013.72,0008.37
2022-10-09 05:04:00,,0833.6,4.98,0.00,29.5,27.8,00.0,38.4,31.3,16.5,0001.3,0009.10,0013.80,0008.36
2022-10-09 05:05:00,,0833.6,5.01,0.00,29.5,27.8,00.0,38.4,31.2,16.4,0001.1,0009.07,0013.76,0008.34
2022-10-09 05:06:00,,0833.6,5.00,0.00,29.5,27.8,00.0,38.4,31.2,16.5,0001.1,0009.00,0013.16,0008.32
2022-10-09 05:07:00,,0833.6,5.00,0.00,29.5,27.8,00.0,38.4,31.2,16.5,0001.3,0008.94,0012.56,0008.28
2022-10-09 05:08:00,,0833.6,5.01,0.00,29.5,27.8,00.0,38.4,31.2,16.5,0001.3,0008.83,0012.38,0008.23
2022-10-09 05:09:00,,0833.6,4.98,0.00,29.5,27.8,00.0,38.3,31.2,16.5,0001.5,0008.75,0012.24,0008.16
2022-10-09 05:10:00,,0833.6,5.01,0.00,29.5,27.8,00.0,38.3,31.2,16.5,0001.7,0008.73,0012.31,0008.12
2022-10-09 05:11:00,,0833.6,5.00,0.00,29.5,27.8,00.0,38.3,31.2,16.4,0001.5,0008.66,0012.13,0008.06
2022-10-09 05:12:00,,0833.6,5.00,0.00,29.4,27.8,00.0,38.3,31.2,16.4,0001.3,0008.60,0012.02,0008.01
2022-10-09 05:13:00,,0833.6,5.01,0.00,29.4,27.8,00.0,38.3,31.2,16.4,0000.9,0008.61,0012.12,0007.98
2022-10-09 05:14:00,,0833.6,4.99,0.00,29.4,27.8,00.0,38.3,31.2,16.4,0000.9,0008.60,0012.20,0007.96
2022-10-09 05:15:00,,0833.6,5.02,0.00,29.4,27.8,00.0,38.3,31.2,16.4,0000.5,0008.57,0012.31,0007.94
2022-10-09 05:16:00,,0833.6,4.99,0.00,29.4,27.7,00.0,38.3,31.2,16.4,0000.5,0008.61,0012.87,0007.92
2022-10-09 05:17:00,,0833.6,5.01,0.00,29.4,27.7,00.0,38.3,31.2,16.4,0000.2,0008.62,0013.57,0007.89
2022-10-09 05:18:00,,0833.6,5.00,0.00,29.4,27.7,00.0,38.3,31.1,16.4,-000.1,0008.60,0013.48,0007.87
2022-10-09 05:19:00,,0833.6,4.99,0.00,29.4,27.7,00.0,38.3,31.1,16.3,0000.2,0008.58,0013.50,0007.85
2022-10-09 05:20:00,,0833.6,5.01,0.00,29.4,27.7,00.0,38.3,31.1,16.3,0000.1,0008.56,0013.39,0007.85
2022-10-09 05:21:00,,0833.6,5.00,0.00,29.4,27.7,00.0,38.3,31.2,16.3,0000.1,0008.49,0013.32,0007.83
2022-10-09 05:22:00,,0833.6,5.00,0.00,29.4,27.7,00.0,38.2,31.1,16.3,0000.5,0008.49,0014.20,0007.82
2022-10-09 05:23:00,,0833.6,4.99,0.00,29.4,27.7,00.0,38.2,31.1,16.3,0000.6,0008.47,0014.16,0007.81
2022-10-09 05:24:00,,0833.6,5.00,0.00,29.4,27.6,00.0,38.2,31.1,16.2,0000.7,0008.42,0014.07,0007.79
2022-10-09 05:25:00,,0833.6,5.00,0.00,29.4,27.7,00.0,38.2,31.1,16.2,0000.5,0008.36,0013.89,0007.75
2022-10-09 05:26:00,,0833.6,5.01,0.00,29.4,27.7,00.0,38.2,31.1,16.2,0000.8,0008.33,0013.53,0007.75
2022-10-09 05:27:00,,0833.5,5.00,0.00,29.3,27.6,00.0,38.2,31.1,16.2,0000.6,0008.25,0012.90,0007.73
2022-10-09 05:28:00,,0833.6,5.01,0.00,29.3,27.6,00.0,38.2,31.1,16.2,0000.8,0008.21,0012.20,0007.69
2022-10-09 05:29:00,,0833.6,4.99,0.00,29.3,27.6,00.0,38.2,31.1,16.2,0001.1,0008.18,0012.16,0007.67
2022-10-09 05:30:00,,0833.6,5.00,0.00,29.3,27.6,00.0,38.2,31.1,16.2,0000.9,0008.16,0012.08,0007.66
2022-10-09 05:31:00,,0833.5,4.99,0.00,29.3,27.6,00.0,38.2,31.0,16.2,0001.3,0008.19,0012.20,0007.64
2022-10-09 05:32:00,,0833.5,4.99,0.00,29.3,27.6,00.0,38.2,31.0,16.2,0001.5,0008.21,0012.08,0007.63
2022-10-09 05:33:00,,0833.6,5.01,0.00,29.3,27.6,00.0,38.2,31.1,16.2,0001.6,0008.20,0011.24,0007.63
2022-10-09 05:34:00,,0833.6,4.99,0.00,29.3,27.6,00.0,38.1,31.0,16.3,0001.8,0008.19,0011.18,0007.62
2022-10-09 05:35:00,,0833.6,5.00,0.00,29.3,27.6,00.0,38.1,31.0,16.3,0001.8,0008.19,0011.17,0007.62
2022-10-09 05:36:00,,0833.6,5.01,0.00,29.3,27.6,00.0,38.1,31.0,16.3,0002.0,0008.18,0011.28,0007.62
2022-10-09 05:37:00,,0833.6,4.99,0.00,29.3,27.6,00.0,38.1,31.0,16.2,0001.8,0008.16,0011.56,0007.60
2022-10-09 05:38:00,,0833.6,5.00,0.00,29.3,27.6,00.0,38.1,31.0,16.2,0002.4,0008.18,0011.83,0007.61
2022-10-09 05:39:00,,0833.6,5.00,0.00,29.2,27.6,00.0,38.1,31.0,16.2,0002.4,0008.21,0011.96,0007.62
2022-10-09 05:40:00,,0833.5,4.99,0.00,29.2,27.5,00.0,38.1,31.0,16.2,0002.0,0008.21,0012.03,0007.62
2022-10-09 05:41:00,,0833.5,5.01,0.00,29.2,27.5,00.0,38.1,31.0,16.1,0002.0,0008.20,0012.02,0007.60
2022-10-09 05:42:00,,0833.6,5.00,0.00,29.2,27.5,00.0,38.1,31.0,16.1,0001.9,0008.15,0011.91,0007.59
2022-10-09 05:43:00,,0833.6,4.99,0.00,29.2,27.5,00.0,38.1,30.9,16.2,0001.4,0008.16,0011.96,0007.59
2022-10-09 05:44:00,,0833.6,5.01,0.00,29.2,27.5,00.0,38.1,31.0,16.0,0001.1,0008.14,0012.23,0007.57
2022-10-09 05:45:00,,0833.5,5.00,0.00,29.2,27.5,00.0,38.1,30.9,16.0,0000.9,0008.14,0012.70,0007.56
2022-10-09 05:46:00,,0833.5,4.99,0.00,29.2,27.5,00.0,38.1,30.9,16.1,0000.9,0008.12,0012.65,0007.56
2022-10-09 05:47:00,,0833.5,5.01,0.00,29.2,27.5,00.0,38.0,30.9,16.1,0000.7,0008.11,0012.78,0007.55
2022-10-09 05:48:00,,0833.6,4.98,0.00,29.2,27.4,00.0,38.0,30.9,16.1,0000.2,0008.14,0012.65,0007.53
2022-10-09 05:49:00,,0833.6,4.99,0.00,29.2,27.4,00.0,38.0,30.9,16.1,-000.4,0008.11,0012.39,0007.51
2022-10-09 05:50:00,,0833.5,5.01,0.00,29.1,27.4,00.0,38.0,30.9,16.1,-000.7,0008.05,0012.27,0007.49
2022-10-09 05:51:00,,0833.6,5.00,0.00,29.1,27.4,00.0,38.0,30.9,16.1,-000.8,0008.02,0012.31,0007.48
2022-10-09 05:52:00,,0833.6,5.00,0.00,29.1,27.4,00.0,38.0,30.8,16.1,-000.9,0008.02,0012.58,0007.48
2022-10-09 05:53:00,,0833.5,5.01,0.00,29.1,27.4,00.0,38.0,30.9,16.1,-001.1,0007.98,0012.52,0007.46
2022-10-09 05:54:00,,0833.5,4.99,0.00,29.1,27.4,00.0,38.0,30.8,16.1,-001.3,0007.91,0012.44,0007.44
2022-10-09 05:55:00,,0833.5,5.01,0.00,29.1,27.4,00.0,38.0,30.8,16.2,-001.1,0007.92,0012.21,0007.44
2022-10-09 05:56:00,,0833.5,5.00,0.00,29.1,27.4,00.0,38.0,30.9,16.1,-001.0,0007.94,0012.30,0007.43
2022-10-09 05:57:00,,0833.5,4.99,0.00,29.1,27.4,00.0,38.0,30.9,16.2,-001.1,0007.95,0012.40,0007.41
2022-10-09 05:58:00,,0833.4,5.00,0.00,29.1,27.4,00.0,37.9,30.9,16.1,-001.0,0007.92,0012.08,0007.39
2022-10-09 05:59:00,,0833.4,4.99,0.00,29.1,27.4,00.0,37.9,30.8,16.1,-000.7,0007.86,0011.88,0007.37
